Regional Weather Roundup
Issued by NWS

Home | Current Version | Previous Version | Graphics & Text | Print | Product List | Glossary On
Versions: 1 2 3 4 5 6 7 8 9 10 11 12 13 14 15 16 17 18 19 20 21 22 23 24 25 26 27 28 29 30 31 32 33 34 35 36 37 38 39 40 41 42 43 44 45 46 47 48 49 50
221
ASUS44 KLIX 181101
RWRLA
LOUISIANA WEATHER ROUNDUP
NATIONAL WEATHER SERVICE NEW ORLEANS LA
600 AM CDT FRI APR 18 2014

NOTE: "FAIR" INDICATES FEW OR NO CLOUDS BELOW 12,000 FEET WITH NO
      SIGNIFICANT WEATHER AND/OR OBSTRUCTIONS TO VISIBILITY.
      SKY/WX - SKY CONDITION AND SIGNIFICANT WEATHER.
      TMP - AIR TEMPERATURE.    DP   - DEWPOINT TEMPERATURE.
      RH  - RELATIVE HUMIDITY.  PRES - PRESSURE.
      HX  - HEAT INDEX.         WCI  - WIND CHILL INDEX.

*  THESE STATIONS ARE NOT NWS OR FAA STATIONS AND ARE NOT UNDER
   NWS QUALITY CONTROL.

LAZ040-048-061>063-065-066-069-181200-
SOUTHEAST LOUISIANA

CITY           SKY/WX    TMP DP  RH WIND       PRES   REMARKS
N.O. AUDUBON     N/A     61 N/A N/A MISG        N/A
N.O. INTL ARPT CLOUDY    62  59  90 N12       30.06F
N.O. LAKEFRONT CLOUDY    62  60  93 N13       30.07S
N.O. DOWNTOWN* CLOUDY    61  55  82 N6        30.07S
SLIDELL        LGT RAIN  61  59  93 N8        30.07S FOG
BATON ROUGE    CLOUDY    61  55  81 N3        30.10S
BOOTHVILLE     CLOUDY    63  60  90 NE10      30.00F
BELLE CHASSE   LGT RAIN  62  58  86 NE8       30.05S FOG
BOGALUSA*      DRIZZLE   62  58  87 N6        30.10S
GALLIANO*      NOT AVBL
NEW ROADS*     NOT AVBL
GONZALES*      CLOUDY    61  58  90 N5        30.08S
HAMMOND*       NOT AVBL
HOUMA*         LGT RAIN  63  57  82 N7        30.07R
PORT FOURCHON* CLOUDY    64  61  88 N10       30.05R

$$

LAZ041-044-053-054-181200-
SOUTHWEST LOUISIANA

CITY           SKY/WX    TMP DP  RH WIND       PRES   REMARKS
LAKE CHARLES   CLEAR     55  53  93 N5        30.12R
LAFAYETTE      CLOUDY    60  58  92 NE5       30.11R
PATTERSON      CLOUDY    61  57  88 N7          N/A
SALT POINT       N/A     64  61  90 N5        30.06F
NEW IBERIA     CLOUDY    62  58  86 NE7       30.10R
CHENAULT AIRPK NOT AVBL

$$

LAZ027-028-181200-
CENTRAL LOUISIANA

CITY           SKY/WX    TMP DP  RH WIND       PRES   REMARKS
FORT POLK      CLOUDY    53  51  93 CALM      30.14R
ALEXANDRIA INT CLOUDY    55  54  96 NW6       30.14R
ALEXANDRIA     PTCLDY    52  50  93 CALM      30.14R

$$

LAZ001-002-181200-
NORTHWEST LOUISIANA

CITY           SKY/WX    TMP DP  RH WIND       PRES   REMARKS
SHREVEPORT     CLOUDY    55  52  89 N3        30.18R
BARKSDALE AFB  NOT AVBL
DTN SHREVEPORT CLOUDY    54  51  90 N5        30.18R

$$

LAZ014-016-181200-
NORTHEAST LOUISIANA

CITY           SKY/WX    TMP DP  RH WIND       PRES   REMARKS
MONROE         CLOUDY    56  53  90 CALM      30.18R
TALLULAH       CLOUDY    59  54  83 N5        30.16R

$$




USA.gov is the U.S. government's official web portal to all federal, state and local government web resources and services.